Find Starlink 33941

NORAD ID: 63765 Int'l Des: 2025-089 Owner: SPXS Country: US Constellation: starlink operational
LEOCIRCULAR

Live-Position

3D-Globus wird geladen...

Über Starlink 33941

Beschreibung wird geladen...

Nächste Überflüge

Passes for default location (London). Set your location on the main map for personalized predictions.

Höhenverlauf

Loading altitude history...

Zweizeiliger Elementsatz

1 63765U 25089Q 26127.26202195 .00021437 00000-0 78625-3 0 9994
2 63765 43.0012 74.6059 0001420 269.6496 90.4193 15.27579542 57903
Epoch: 7. Mai 2026 • Age: 24 hours

Aktueller Status

Höhe 485.4 km
Geschwindigkeit 7.63 km/s
Subsatellitenpunkt 35.98°N, 123.2°W
Startdatum 29. Apr. 2025
Alter 1 years
Typ internet

Technische Details

Klassifizierung Payload
Masse 575.00 kg
Trockenmasse 530.00 kg
Gesamtmasse 575.00 kg
Länge 0.30 m
Durchmesser 4.10 m
Spannweite 29.00 m
Form Box + pan
Hersteller SPXS
Bus-Typ Starlink V2MO
Phasenstatus In Orbit
Besitzer/Staat SPXS/US

Most Searched